Location: Sinanl?
(38.9444°N, 32.2533°E)
Time: 11:07:53
(UTC+00:00)

Daily predictions for brighter satellites

Satellite Brightness Start Highest point End
(mag) Time Altitude Azimuth Time Altitude Azimuth Time Altitude Azimuth
USA 229 DEB 4.4 16:40:22 10° SW 16:46:05 53° NW 16:52:30 10° NNE
USA 229 4.4 16:40:24 10° SW 16:46:08 54° NW 16:52:34 10° NNE
CZ-2D R/B 3.7 16:45:29 10° S 16:49:33 71° WSW 16:53:34 10° NNW
NOSS 2-2 (D) 3.8 16:45:37 10° NNW 16:49:42 72° ENE 16:55:23 10° SE
Okean 1-7 3.4 16:49:01 10° N 16:52:54 40° E 16:56:46 10° SSE
Cosmos 2278 4.2 16:49:15 10° SSW 16:54:51 68° WNW 17:00:31 10° NNE
Spot 4 Rocket 4.3 16:50:10 10° S 16:55:15 76° WSW 17:00:22 10° NNW
Cosmos 1328 3.7 16:52:16 10° N 16:55:40 46° E 16:59:03 10° SSE
Aureole 1 Rocket 2.2 16:53:15 10° SSW 16:56:51 79° ESE 16:59:57 10° NNE
Cosmos 1862 Rocket 3.8 16:53:30 10° N 16:57:50 51° E 17:02:06 10° SSE
Cosmos 1707 Rocket 3.8 16:54:17 10° N 16:58:27 47° E 17:02:34 10° SSE
Cosmos 2360 Rocket 2.2 16:54:00 10° SSW 16:59:36 83° ESE 17:05:16 10° NNE
Cosmos 1844 Rocket 2.7 16:55:32 10° NNW 17:01:07 88° WSW 17:06:41 10° SSE
Cosmos 1441 Rocket 3.5 17:00:17 10° N 17:03:26 35° ENE 17:06:32 10° SE
Cosmos 2184 Rocket 4.2 16:58:08 10° SSE 17:04:19 56° E 17:10:31 10° NNE
SL-19 R/B 4.2 17:01:52 10° SSE 17:07:04 86° WSW 17:12:25 10° NNW
Cosmos 2322 Rocket 2.4 17:01:54 10° SSW 17:07:30 78° WNW 17:13:08 10° NNE
Cosmos 2228 Rocket 3.5 17:03:37 10° N 17:07:55 43° E 17:12:07 10° SSE
Helios 1A Rocket 3.2 17:05:49 10° NE 17:08:38 27° E 17:11:25 10° SSE
BREEZE-M DEB (TANK) 3.4 17:07:34 10° NW 17:09:47 41° NNE 17:15:16 12° E
Cosmos 1666 Rocket 3.6 17:10:27 10° S 17:14:43 82° W 17:19:01 10° N
SL-16 R/B 3.9 17:10:19 10° SW 17:15:31 37° WNW 17:20:46 10° N
Cosmos 1633 Rocket 3.0 17:11:28 10° S 17:15:50 83° E 17:20:13 10° N
BlueWalker 3 1.9 17:12:53 10° NW 17:16:28 72° SW 17:19:29 14° SE
Aureole 2 4.4 17:13:37 10° NNW 17:17:05 63° ENE 17:20:17 11° SSE
Cosmos 1340 Rocket 3.1 17:15:14 10° SSW 17:18:52 63° W 17:22:30 10° N
CSL-04 Debris 4.4 17:13:58 10° SE 17:19:03 48° ENE 17:24:11 10° N
Meteor 1-22 Rocket 4.5 17:13:50 10° SSW 17:19:22 77° W 17:25:11 10° N
Terra 3.2 17:17:03 14° ESE 17:19:31 21° ENE 17:23:02 10° NNE
Atlas Centaur 2 3.7 17:15:09 10° WSW 17:19:56 27° SSW 17:25:12 11° SE
Cosmos 1898 Rocket 3.4 17:17:02 10° SSW 17:22:17 82° ESE 17:27:31 10° NNE
Resurs 01 Rocket 3.3 17:23:26 10° SSW 17:27:25 34° W 17:31:26 10° NNW
CZ-4 R/B 1.7 17:25:09 16° SE 17:27:54 41° ENE 17:31:29 10° N
Okean O Rocket 3.5 17:29:29 13° ENE 17:30:09 13° ENE 17:32:08 10° NE
CENTAUR R/B 4.0 17:23:46 10° NW 17:32:20 58° WSW 17:41:36 10° SSE
SL-08 R/B 4.2 17:29:24 10° NE 17:33:36 28° E 17:36:20 17° SE
Meteor 1-24 Rocket 3.7 17:29:06 10° N 17:34:36 88° E 17:40:16 10° S
Cosmos 2074 Rocket 4.1 17:29:54 10° S 17:36:06 80° W 17:42:23 10° N
Cosmos 2219 Rocket 2.3 17:30:34 10° SSW 17:36:08 82° WNW 17:41:45 10° NNE
Cosmos 1538 Rocket 3.9 17:31:38 10° NNW 17:36:48 84° ENE 17:41:35 12° SSE
CZ-3C R/B 3.7 17:34:10 10° WSW 17:37:51 12° SW 17:40:10 10° SSW
SPOT 5 2.8 17:34:16 10° SSE 17:39:08 90° E 17:43:47 10° NNW
Cosmos 1937 Rocket 3.5 17:38:39 10° SSW 17:43:56 87° WNW 17:49:16 10° NNE
Tiangong -1.0 17:41:38 10° W 17:44:30 33° SSW 17:45:27 26° S
CZ-4B R/B 3.5 17:43:01 17° SSE 17:45:38 89° WSW 17:49:18 10° NNW
Cosmos 1339 Rocket 4.5 17:42:06 10° N 17:48:19 62° E 17:53:19 16° SSE
SL-8 Rocket 4.5 17:44:34 18° SE 17:48:32 37° E 17:54:12 10° NNE
Meteor 1-31 Rocket 2.5 17:46:52 19° S 17:49:16 83° WSW 17:52:49 10° NNW
COSMOS 2428 3.0 17:47:48 10° S 17:53:09 43° ESE 17:58:31 10° NE
IRAS Rocket 4.4 17:48:46 10° S 17:54:17 75° WSW 17:59:47 10° NNW
PAYLOAD B 4.2 17:51:41 21° SSE 17:55:20 65° ENE 18:00:47 10° N
CZ-4B R/B 3.4 17:53:16 26° SE 17:56:10 53° ENE 18:01:36 10° N
Cosmos 923 Rocket 4.2 17:51:12 10° N 17:56:24 53° ENE 17:58:34 32° SE
CZ-4B DEB 4.1 17:52:39 18° SSE 17:56:46 78° ENE 18:02:15 10° N
MetOp-B 4.3 17:54:19 27° SE 17:57:04 54° ENE 18:02:18 10° N
CSL-04 Rocket 4.0 17:51:52 10° S 17:57:20 69° WSW 18:02:53 10° NNW
Cosmos 2366 rocket 4.4 17:55:28 25° SE 17:58:27 40° E 18:04:07 10° NNE
Cosmos 2327 Rocket 4.4 17:55:42 10° S 18:01:43 66° E 18:07:53 10° NNE
NOSS 3-2 (C) 4.4 17:57:03 10° NNW 18:04:27 56° NE 18:08:57 29° ESE
Cosmos 2278 Rocket 3.7 18:01:00 10° N 18:04:59 19° NE 18:05:59 18° ENE
SKYMED 3 4.1 18:08:57 10° NNE 18:12:51 89° ESE 18:14:26 35° SSW
NOSS 3-2 (A) 4.4 18:05:14 10° NW 18:12:57 70° WSW 18:19:22 21° SSE
Spot 2 Rocket 3.9 18:13:51 39° E 18:14:24 40° ENE 18:19:06 10° N
Cosmos 1703 Rocket 3.9 18:15:32 10° NNW 18:19:48 62° W 18:21:39 31° SSW
ERS-1 Rocket 2.9 18:17:55 33° S 18:20:11 81° WSW 18:25:13 10° NNW
Cosmos 2218 Rocket 3.9 18:21:24 38° SSE 18:23:39 59° E 18:29:40 10° NNE
Lacrosse 5 rocket 3.0 18:21:57 10° W 18:24:40 25° NW 18:27:17 11° NNE
Cosmos 1933 Rocket 4.0 18:21:41 14° SSW 18:25:20 59° W 18:29:41 10° N
Meteor 2-15 4.4 18:27:13 47° SE 18:28:31 57° E 18:34:27 10° NNE
Cosmos 1943 Rocket 2.9 18:26:03 10° N 18:31:14 36° ENE 18:31:28 35° ENE
MOS 1-B 4.4 18:31:09 53° ESE 18:32:11 62° ENE 18:37:52 10° N
Cosmos 1959 Rocket 4.4 18:31:23 41° SSE 18:33:39 68° E 18:39:57 10° NNE
In-Cosmos 22 Rocket 3.9 18:31:06 10° N 18:36:27 84° E 18:37:17 64° SSE
YAOGAN 11 4.0 18:32:50 10° NNE 18:36:41 74° NNE 18:36:41 74° NNE
Cosmos 1821 Rocket 4.0 18:37:50 54° ESE 18:38:15 55° E 18:44:22 10° NNE
Okean-O 2.9 18:43:16 59° NNE 18:43:16 59° NNE 18:46:55 10° N
Cosmos 494 Rocket 3.8 18:41:16 10° NNW 18:46:28 85° ENE 18:46:32 85° ESE
ADEOS 4.3 18:52:04 36° SW 18:53:39 47° W 18:58:41 10° NNW
Terra 3.0 18:55:39 32° SW 18:56:46 37° W 19:01:08 10° NNW
Meteor 2-21 4.4 18:52:48 10° N 18:58:41 65° ENE 18:58:41 65° ENE
CZ-4 R/B 4.1 19:00:35 10° WSW 19:02:06 12° W 19:03:36 10° WNW
Cosmos 2237 Rocket 3.2 19:05:50 36° NE 19:05:50 36° NE 19:09:08 10° NNE
Cosmos 1980 4.4 19:06:16 42° NE 19:06:16 42° NE 19:09:57 10° NNE
Okean O Rocket 2.5 19:06:43 46° NW 19:06:43 46° NW 19:10:07 10° NNW
ASTEX 1 4.1 19:11:29 47° N 19:11:29 47° N 19:14:57 10° N
SPOT 3 Rocket 4.2 19:21:38 50° N 19:21:38 50° N 19:25:26 10° NNW
Cosmos 2369 Rocket 4.4 19:37:18 10° NNE 19:39:12 14° NE 19:39:12 14° NE
Ariane Rocket 4.4 19:46:48 34° NNW 19:46:48 34° NNW 19:49:40 10° NNW
Cosmos 1727 Rocket 4.4 19:38:27 10° N 19:43:49 62° NW 19:43:49 62° NW
USA 238 DEB 4.1 19:37:38 10° NNW 19:44:50 68° NE 19:44:50 68° NE
USA 238 4.1 19:37:49 10° NNW 19:45:00 67° NE 19:45:00 67° NE
Cosmos 2278 Rocket 3.2 19:43:54 10° NNW 19:47:49 43° NW 19:47:49 43° NW
Cosmos 1943 Rocket 4.0 20:09:56 10° NW 20:12:59 25° WNW 20:12:59 25° WNW
Cosmos 2237 Rocket 4.5 20:47:31 18° WNW 20:48:03 18° NW 20:51:53 10° N
ACS3 Solar Sail 4.1 21:55:42 10° NE 21:56:52 14° NE 21:56:52 14° NE
USA 281 4.5 22:41:15 35° NNE 22:41:15 35° NNE 22:45:57 10° N
Cosmos 1697 Rocket 4.4 23:21:49 10° N 23:24:53 29° NNE 23:24:53 29° NNE
Cosmos 1980 Rocket 4.1 23:37:53 10° N 23:42:37 26° ENE 23:45:53 16° ESE
ACS3 Solar Sail 3.0 23:36:59 10° N 23:40:25 34° NNW 23:40:25 34° NNW
